When you browse on this site, cookies collect data to enhance your experience and personalize the content and advertising you see.
Visit our Privacy Policy to learn more. By continuing to use the site, you agree to this use of cookies and data.
  • In Romania
  • List of Countries
  • For 7 days
  • Water Temperature
  • Satellite Maps
  • Weather Map
  • Weather Widgets
  • user-avatar
    Login

    Hourly Weather Santiago del Estero

    Today, 22 March, Friday

    Time Temperature Precipitation Wind Pressure Humidity
    00:00 +19°C° 0 mm 1 mps 744 mmHg 70%
    01:00 +19°C° 0 mm 1 mps 744 mmHg 71%
    02:00 +16°C° 0 mm 0 mps 744 mmHg 75%
    03:00 +18°C° 0 mm 1 mps 744 mmHg 76%
    04:00 +16°C° 0 mm 1 mps 744 mmHg 77%
    05:00 +16°C° 0 mm 1 mps 744 mmHg 78%
    06:00 +19°C° 0 mm 1 mps 744 mmHg 73%
    07:00 +19°C° 0 mm 2 mps 745 mmHg 69%
    08:00 +20°C° 0 mm 2 mps 745 mmHg 64%
    09:00 +24°C° 0 mm 3 mps 745 mmHg 58%
    10:00 +26°C° 0 mm 3 mps 745 mmHg 53%
    11:00 +28°C° 0 mm 4 mps 745 mmHg 47%
    12:00 +29°C° 0 mm 4 mps 745 mmHg 45%
    13:00 +30°C° 0 mm 4 mps 744 mmHg 42%
    14:00 +32°C° 0 mm 4 mps 744 mmHg 40%
    15:00 +31°C° 0 mm 3 mps 743 mmHg 40%
    16:00 +31°C° 0 mm 3 mps 743 mmHg 40%
    17:00 +31°C° 0 mm 3 mps 743 mmHg 40%
    18:00 +29°C° 0 mm 2 mps 743 mmHg 47%
    19:00 +26°C° 0 mm 1 mps 743 mmHg 53%
    20:00 +24°C° 0 mm 1 mps 744 mmHg 60%
    21:00 +24°C° 0 mm 1 mps 744 mmHg 59%
    22:00 +24°C° 0 mm 2 mps 744 mmHg 59%
    23:00 +22°C° 0 mm 3 mps 745 mmHg 58%

    Tomorrow, 23 March, Saturday

    Time Temperature Precipitation Wind Pressure Humidity
    00:00 +22°C° 0 mm 3 mps 745 mmHg 60%
    01:00 +21°C° 0 mm 3 mps 744 mmHg 61%
    02:00 +21°C° 0 mm 3 mps 744 mmHg 63%
    03:00 +20°C° 0 mm 3 mps 744 mmHg 65%
    04:00 +20°C° 0 mm 3 mps 744 mmHg 66%
    05:00 +19°C° 0 mm 3 mps 744 mmHg 68%
    06:00 +20°C° 0 mm 3 mps 744 mmHg 65%
    07:00 +21°C° 0 mm 4 mps 745 mmHg 62%
    08:00 +22°C° 0 mm 5 mps 745 mmHg 59%
    09:00 +25°C° 0 mm 5 mps 745 mmHg 54%
    10:00 +28°C° 0 mm 5 mps 744 mmHg 48%
    11:00 +30°C° 0 mm 6 mps 744 mmHg 43%
    12:00 +32°C° 0 mm 6 mps 743 mmHg 40%
    13:00 +33°C° 0 mm 6 mps 742 mmHg 38%
    14:00 +35°C° 0 mm 5 mps 741 mmHg 36%
    15:00 +35°C° 0 mm 5 mps 741 mmHg 36%
    16:00 +35°C° 0 mm 4 mps 740 mmHg 36%
    17:00 +35°C° 0 mm 4 mps 740 mmHg 37%
    18:00 +31°C° 0 mm 3 mps 740 mmHg 42%
    19:00 +29°C° 0 mm 2 mps 741 mmHg 47%
    20:00 +27°C° 0 mm 2 mps 741 mmHg 53%
    21:00 +26°C° 0 mm 2 mps 742 mmHg 54%
    22:00 +26°C° 0 mm 2 mps 742 mmHg 55%
    23:00 +25°C° 0 mm 2 mps 742 mmHg 56%

    Day after tomorrow, 24 March, Sunday

    Time Temperature Precipitation Wind Pressure Humidity
    00:00 +25°C° 0 mm 3 mps 742 mmHg 57%
    01:00 +24°C° 0 mm 3 mps 742 mmHg 58%
    02:00 +22°C° 0 mm 3 mps 742 mmHg 59%
    03:00 +23°C° 0 mm 2 mps 743 mmHg 60%
    04:00 +21°C° 0 mm 2 mps 743 mmHg 62%
    05:00 +21°C° 0 mm 2 mps 743 mmHg 64%
    06:00 +23°C° 0 mm 2 mps 743 mmHg 61%
    07:00 +24°C° 0 mm 2 mps 744 mmHg 59%
    08:00 +25°C° 0 mm 2 mps 745 mmHg 56%
    09:00 +26°C° 0 mm 2 mps 745 mmHg 53%
    10:00 +28°C° 0 mm 2 mps 745 mmHg 49%
    11:00 +29°C° 0 mm 2 mps 745 mmHg 46%
    12:00 +30°C° 0 mm 2 mps 744 mmHg 43%
    13:00 +32°C° 0 mm 2 mps 744 mmHg 41%
    14:00 +34°C° 0 mm 2 mps 743 mmHg 38%
    15:00 +34°C° 0 mm 2 mps 743 mmHg 38%
    16:00 +35°C° 0 mm 2 mps 742 mmHg 37%
    17:00 +35°C° 0 mm 2 mps 742 mmHg 36%
    18:00 +32°C° 0 mm 2 mps 742 mmHg 41%
    19:00 +30°C° 0 mm 3 mps 742 mmHg 46%
    20:00 +28°C° 0 mm 3 mps 743 mmHg 50%
    21:00 +28°C° 0 mm 2 mps 743 mmHg 50%
    22:00 +28°C° 0 mm 2 mps 743 mmHg 50%
    23:00 +28°C° 0 mm 2 mps 744 mmHg 50%

    25 March, Monday

    Time Temperature Precipitation Wind Pressure Humidity
    00:00 +27°C° 0 mm 2 mps 744 mmHg 53%
    01:00 +26°C° 0 mm 2 mps 743 mmHg 55%
    02:00 +26°C° 0 mm 2 mps 743 mmHg 58%
    03:00 +25°C° 0.1 mm 2 mps 743 mmHg 60%
    04:00 +24°C° 0.1 mm 2 mps 743 mmHg 61%
    05:00 +24°C° 0.1 mm 2 mps 743 mmHg 63%
    06:00 +22°C° 0.3 mm 3 mps 743 mmHg 65%
    07:00 +21°C° 0.3 mm 3 mps 744 mmHg 68%
    08:00 +21°C° 0.3 mm 3 mps 744 mmHg 71%
    09:00 +22°C° 0 mm 3 mps 744 mmHg 65%
    10:00 +25°C° 0 mm 3 mps 745 mmHg 59%
    11:00 +27°C° 0 mm 3 mps 745 mmHg 54%
    12:00 +26°C° 0.1 mm 3 mps 744 mmHg 56%
    13:00 +25°C° 0.1 mm 3 mps 744 mmHg 58%
    14:00 +25°C° 0.1 mm 3 mps 743 mmHg 61%
    15:00 +24°C° 0.1 mm 3 mps 743 mmHg 62%
    16:00 +22°C° 0.1 mm 3 mps 743 mmHg 63%
    17:00 +22°C° 0.1 mm 4 mps 743 mmHg 64%
    18:00 +21°C° 0.2 mm 4 mps 743 mmHg 67%
    19:00 +21°C° 0.2 mm 4 mps 744 mmHg 69%
    20:00 +21°C° 0.2 mm 4 mps 745 mmHg 72%
    21:00 +21°C° 0.1 mm 4 mps 745 mmHg 72%
    22:00 +21°C° 0.1 mm 4 mps 746 mmHg 72%
    23:00 +21°C° 0.1 mm 4 mps 746 mmHg 72%

    26 March, Tuesday

    Time Temperature Precipitation Wind Pressure Humidity
    00:00 +20°C° 0 mm 4 mps 746 mmHg 71%
    01:00 +19°C° 0 mm 5 mps 746 mmHg 70%
    02:00 +17°C° 0 mm 5 mps 746 mmHg 69%
    03:00 +17°C° 0 mm 5 mps 747 mmHg 71%
    04:00 +17°C° 0 mm 5 mps 747 mmHg 73%
    05:00 +17°C° 0 mm 4 mps 747 mmHg 74%
    06:00 +17°C° 0.1 mm 4 mps 748 mmHg 76%
    07:00 +17°C° 0.1 mm 4 mps 749 mmHg 77%
    08:00 +17°C° 0.1 mm 3 mps 749 mmHg 78%
    09:00 +17°C° 0.1 mm 3 mps 750 mmHg 78%
    10:00 +18°C° 0.1 mm 4 mps 750 mmHg 77%
    11:00 +18°C° 0.1 mm 4 mps 750 mmHg 77%
    12:00 +18°C° 0 mm 3 mps 750 mmHg 74%
    13:00 +19°C° 0 mm 3 mps 750 mmHg 72%
    14:00 +19°C° 0 mm 3 mps 749 mmHg 69%
    15:00 +20°C° 0 mm 3 mps 749 mmHg 68%
    16:00 +20°C° 0 mm 3 mps 749 mmHg 66%
    17:00 +20°C° 0 mm 3 mps 749 mmHg 65%
    18:00 +20°C° 0 mm 3 mps 750 mmHg 67%
    19:00 +19°C° 0 mm 3 mps 750 mmHg 70%
    20:00 +19°C° 0 mm 2 mps 751 mmHg 72%
    21:00 +18°C° 0 mm 2 mps 751 mmHg 75%
    22:00 +18°C° 0 mm 2 mps 751 mmHg 78%
    23:00 +18°C° 0 mm 2 mps 751 mmHg 81%

    27 March, Wednesday

    Time Temperature Precipitation Wind Pressure Humidity
    00:00 +17°C° 0.1 mm 2 mps 751 mmHg 82%
    01:00 +18°C° 0.1 mm 1 mps 751 mmHg 84%
    02:00 +18°C° 0.1 mm 1 mps 751 mmHg 86%
    03:00 +18°C° 0 mm 1 mps 750 mmHg 87%
    04:00 +16°C° 0 mm 1 mps 750 mmHg 88%
    05:00 +16°C° 0 mm 1 mps 750 mmHg 89%
    06:00 +18°C° 0 mm 1 mps 750 mmHg 86%
    07:00 +18°C° 0 mm 1 mps 751 mmHg 84%
    08:00 +19°C° 0 mm 1 mps 751 mmHg 81%
    09:00 +20°C° 0 mm 2 mps 751 mmHg 74%
    10:00 +21°C° 0 mm 2 mps 751 mmHg 66%
    11:00 +24°C° 0 mm 2 mps 750 mmHg 59%
    12:00 +25°C° 0 mm 2 mps 749 mmHg 55%
    13:00 +27°C° 0 mm 2 mps 748 mmHg 51%
    14:00 +28°C° 0 mm 2 mps 747 mmHg 46%
    15:00 +28°C° 0 mm 2 mps 747 mmHg 47%
    16:00 +28°C° 0 mm 2 mps 747 mmHg 48%
    17:00 +28°C° 0 mm 1 mps 746 mmHg 49%
    18:00 +26°C° 0 mm 1 mps 746 mmHg 52%
    19:00 +25°C° 0 mm 1 mps 746 mmHg 56%
    20:00 +24°C° 0 mm 1 mps 747 mmHg 59%
    21:00 +23°C° 0 mm 1 mps 747 mmHg 60%
    22:00 +23°C° 0 mm 1 mps 747 mmHg 61%
    23:00 +23°C° 0 mm 1 mps 747 mmHg 62%
    Show more